EW8068 Weather Reports


time (UTC)temp
F
wind
direction
speed
knots
gust
knots
rain 1hr
in
rain 24hr
in
rain mn
in
humidity
%
barometer
mb
20260507161550 46 273 0.9 11.3 0.00 0.00 0.00 64 1005.7
20260507160036 45 282 0.0 10.4 0.00 0.00 0.00 72 1005.8
20260507154532 44 280 0.0 13.9 0.00 0.00 0.00 70 1005.7
20260507153011 44 250 0.0 11.3 0.00 0.00 0.00 68 1005.9
20260507151510 43 292 0.0 7.8 0.00 0.00 0.00 71 1005.9
20260507144555 43 270 0.0 5.2 0.00 0.00 0.00 80 1005.7
20260507143056 42 280 0.0 2.6 0.00 0.00 0.00 81 1005.8
20260507141550 41 271 0.0 5.2 0.00 0.00 0.00 82 1005.9
20260507140049 41 305 0.0 1.7 0.00 0.00 0.00 79 1005.7
20260507134548 40 305 0.0 4.3 0.00 0.00 0.00 83 1005.7
20260507133050 41 304 0.0 1.7 0.00 0.00 0.00 87 1005.6
20260507131542 40 295 0.0 1.7 0.00 0.00 0.00 92 1005.8
20260507130042 39 305 0.0 4.3 0.00 0.00 0.00 95 1006.0
20260507124545 38 288 0.0 0.0 0.00 0.00 0.00 95 1005.9
20260507123036 38 330 0.0 0.0 0.00 0.00 0.00 96 1005.9
20260507121534 38 301 0.0 0.0 0.00 0.00 0.00 96 1005.8
20260507120035 38 306 0.0 0.0 0.00 0.00 0.00 96 1005.8
20260507114554 38 304 0.0 0.0 0.00 0.00 0.00 96 1005.7
20260507113058 38 304 0.0 0.0 0.00 0.00 0.00 96 1005.7
20260507111540 38 304 0.0 0.0 0.00 0.00 0.00 96 1005.6
20260507110034 38 309 0.0 0.0 0.00 0.00 0.00 96 1005.6
20260507104540 38 309 0.0 0.0 0.00 0.00 0.00 96 1005.7
20260507103031 37 309 0.0 0.0 0.00 0.00 0.00 96 1005.6
20260507101530 37 308 0.0 0.0 0.00 0.00 0.00 96 1005.6
20260507100030 37 323 0.0 0.0 0.00 0.00 0.00 95 1005.3
20260507094532 37 300 0.0 0.0 0.00 0.00 0.00 96 1005.6
20260507093034 37 299 0.0 0.0 0.00 0.00 0.00 95 1005.4
20260507091528 37 313 0.0 0.0 0.00 0.00 0.00 95 1005.1
20260507090027 37 297 0.0 0.0 0.00 0.00 0.00 95 1005.2
20260507084539 38 300 0.0 0.9 0.00 0.00 0.00 95 1005.5
20260507083026 38 288 0.0 5.2 0.00 0.00 0.00 95 1005.5
20260507081534 38 300 0.0 0.9 0.00 0.00 0.00 96 1005.4
20260507080027 37 287 0.0 0.0 0.00 0.00 0.00 95 1005.3
20260507074528 37 286 0.0 0.0 0.00 0.00 0.00 95 1005.4
20260507073026 37 293 0.0 0.0 0.00 0.00 0.00 96 1005.3
20260507071525 37 305 0.0 0.0 0.00 0.00 0.00 96 1005.1
20260507070025 37 299 0.0 0.0 0.00 0.00 0.00 96 1004.9
20260507064524 37 299 0.0 0.0 0.00 0.00 0.00 97 1005.0
20260507063027 37 291 0.0 0.0 0.00 0.00 0.00 97 1005.0
20260507061523 37 290 0.0 0.0 0.00 0.00 0.00 96 1005.2
20260507060022 37 302 0.0 0.0 0.00 0.00 0.00 96 1005.1
20260507054521 37 292 0.0 0.0 0.00 0.00 0.00 97 1005.0
20260507053019 38 307 0.0 0.0 0.00 0.00 0.00 97 1005.2
20260507051516 38 307 0.0 0.0 0.00 0.00 0.00 97 1005.8
20260507050025 38 294 0.0 0.0 0.00 0.00 0.00 97 1005.8
20260507044515 39 310 0.0 0.0 0.00 0.00 0.00 97 1006.0
20260507043021 39 309 0.0 0.0 0.00 0.00 0.00 97 1005.7
20260507041513 39 309 0.0 0.0 0.00 0.00 0.00 97 1005.8
20260507040010 39 308 0.0 0.0 0.00 0.00 0.00 97 1005.9
20260507034520 40 323 0.0 0.0 0.00 0.00 0.00 97 1006.0
20260507033010 40 304 0.0 0.0 0.00 0.00 0.00 97 1006.0
20260507031509 40 296 0.0 0.0 0.00 0.00 0.00 97 1005.8
20260507030010 40 293 0.0 0.0 0.00 0.00 0.00 97 1005.8
20260507024514 40 293 0.0 0.0 0.00 0.00 0.00 97 1005.7
20260507023009 40 329 0.0 0.0 0.00 0.00 0.00 97 1005.9
20260507021510 40 325 0.0 0.0 0.00 0.00 0.00 96 1006.0
20260507020013 40 282 0.0 0.0 0.00 0.00 0.00 97 1006.1
20260507014510 40 280 0.0 0.0 0.00 0.00 0.00 97 1006.2
20260507013008 40 318 0.0 0.0 0.00 0.00 0.00 97 1006.0
20260507011512 40 312 0.0 0.0 0.00 0.00 0.00 96 1005.9
20260507010010 40 292 0.0 0.0 0.00 0.00 0.00 97 1005.8
20260507004509 40 318 0.0 0.0 0.00 0.00 0.00 96 1005.3
20260507003007 40 294 0.0 0.0 0.00 0.00 0.00 96 1005.0
20260507001525 41 294 0.0 0.0 0.00 0.00 0.00 96 1004.9
20260507000013 40 292 0.0 0.0 0.00 0.00 0.00 96 1004.6
20260506234507 40 302 0.0 0.0 0.00 0.00 0.00 96 1004.2
20260506233007 40 296 0.0 0.0 0.00 0.00 0.00 96 1004.4
20260506231506 41 305 0.0 0.0 0.00 0.00 0.00 96 1004.4
20260506230005 41 302 0.0 0.0 0.00 0.00 0.00 96 1004.2
20260506224505 41 295 0.0 0.0 0.00 0.00 0.00 96 1004.2
20260506223004 41 273 0.0 0.0 0.00 0.00 0.00 96 1004.0
20260506221505 41 329 0.0 0.0 0.00 0.00 0.00 96 1004.2
20260506220005 41 325 0.0 0.0 0.00 0.00 0.00 96 1004.1
20260506214504 40 299 0.0 0.0 0.00 0.00 0.00 96 1004.0
20260506213004 40 289 0.0 0.0 0.00 0.00 0.00 96 1004.0
20260506211502 40 265 0.0 0.0 0.00 0.00 0.00 96 1004.1
20260506210004 40 288 0.0 0.0 0.00 0.00 0.00 96 1004.0
20260506204603 41 294 0.0 0.0 0.00 0.00 0.00 96 1003.8
20260506204501 41 294 0.0 0.0 0.00 0.00 0.00 95 1003.8
20260506203122 41 287 0.0 0.0 0.00 0.00 0.00 96 1003.6
20260506201600 41 284 0.0 0.0 0.00 0.00 0.00 95 1003.5
20260506194605 41 278 0.0 0.0 0.00 0.00 0.00 95 1003.4
20260506193106 41 306 0.0 0.0 0.00 0.00 0.00 96 1003.4
20260506191558 42 279 0.0 0.0 0.00 0.00 0.00 96 1003.4
20260506190057 41 275 0.0 0.0 0.00 0.00 0.00 96 1003.5
20260506184557 41 270 0.0 0.9 0.00 0.00 0.00 96 1003.6
20260506183104 41 258 0.0 0.0 0.00 0.00 0.00 96 1003.6
20260506181558 41 307 0.0 0.9 0.00 0.00 0.00 96 1004.0
20260506180055 41 290 0.0 0.0 0.00 0.00 0.00 96 1003.8
20260506174554 40 296 0.0 0.0 0.00 0.00 0.00 96 1004.1
20260506173059 40 248 0.0 0.0 0.00 0.00 0.00 96 1004.1
20260506171553 40 286 0.0 0.9 0.00 0.00 0.00 96 1004.6
20260506170106 40 282 0.0 0.0 0.00 0.00 0.00 96 1004.0
20260506164610 40 298 0.0 2.6 0.00 0.00 0.00 95 1004.4
20260506163100 40 224 0.0 7.0 0.00 0.00 0.00 95 1003.6